Location: Buckenweiler
(49.0667°N, 10.2500°E)
Time: 20:42:11
(UTC+00:00)

FengYun 1-2 T - Pass Details

Date: 18 January 2026
Orbit: 844 x 880 km, 98.8° (Epoch: 17 February)

Event Time Altitude Azimuth Distance (km) Brightness Sun altitude
Rises 04:55:46 0° 10° (N) 3,460 7.4 -20.8°
Reaches altitude 10° 04:58:15 10° 4° (N) 2,513 6.6 -20.4°
Maximum altitude 05:03:29 44° 294° (WNW) 1,178 4.5 -19.5°
Enters shadow 05:06:41 22° 235° (SW) 1,789 5.5 -19.0°
